Home > Weather > Buenos Aires > Past weeks

Flag for Argentina Past Weather in Buenos Aires, Argentina — Yesterday and Last 2 Weeks

Now
45 °F

Clear.


Feels Like: 41 °F
Forecast: 42 / 50 °F
Wind: 7 mph from South

Location: Buenos Aires Airport

Current Time: Jul 27, 2016 at 6:58:51 AM

Latest Report: Jul 27, 2016 at 6:00 AM


Visibility: 10 mi

Pressure: 30.18 "Hg

Humidity: 87%

Dew Point: 41 °F

Location of Buenos AiresLocation

Past Weather in Buenos Aires — Graph

°F

Buenos Aires Temperature Yesterday

Maximum temperature yesterday: 54 °F (at 12:00 AM)
Minimum temperature yesterday: 48 °F (at 11:00 PM)
Average temperature yesterday: 51 °F

High & Low Weather Summary for the Past Weeks

 TemperatureHumidityPressure
High59 °F (Jul 12, 4:00 PM)100% (Jul 14, 10:00 PM)30.42 "Hg (Jul 14, 10:00 PM)
Low37 °F (Jul 17, 7:00 AM)54% (Jul 15, 9:00 PM)29.68 "Hg (Jul 26, 6:00 AM)
Average50 °F78%30.12 "Hg
* Reported Jul 12 5:00 AM — Jul 27 5:00 AM, Buenos Aires, Weather by CustomWeather, © 2016

Note: Actual official high and low records may vary slightly from our data, if they occured in-between our weather recording intervals... More about our weather records

Advertising

Buenos Aires Weather History for the Previous 24 Hours

Scroll right to see more
 ConditionsComfort  
Time TempWeatherWind HumidityBarometerVisibility
5:00 AM
Wed, Jul 27
45 °FClear.9 mph87%30.21 "Hg10 mi
4:00 AM45 °FClear.7 mph87%30.15 "Hg10 mi
3:00 AM46 °FClear.7 mph87%30.21 "Hg10 mi
2:00 AM46 °FClear.6 mph87%30.21 "Hg10 mi
1:00 AM46 °FClear.7 mph87%30.18 "Hg10 mi
12:00 AM48 °FClear.9 mph82%30.18 "Hg10 mi
11:00 PM
Tue, Jul 26
48 °FClear.7 mph87%30.15 "Hg10 mi
10:00 PM50 °FClear.8 mph76%30.12 "Hg10 mi
9:00 PM50 °FClear.8 mph76%30.04 "Hg10 mi
8:00 PM50 °FPartly cloudy.7 mph82%30.07 "HgN/A
7:00 PM50 °FMostly cloudy.9 mph88%30.04 "Hg6 mi
6:00 PM50 °FPartly cloudy.10 mph94%30.01 "Hg2 mi
5:00 PM50 °FDrizzle. Broken clouds.12 mph88%29.95 "Hg5 mi
4:00 PM50 °FDrizzle. Partly sunny.12 mph88%29.92 "Hg5 mi
3:00 PM50 °FDrizzle. Partly sunny.10 mph94%29.86 "Hg2 mi
2:00 PM52 °FDrizzle. Partly sunny.10 mph94%29.83 "Hg1 mi
12:00 PM52 °FDrizzle. Fog.15 mph94%29.74 "Hg1 mi
11:00 AM52 °FDrizzle. Fog.18 mph94%29.71 "Hg1 mi
10:00 AM52 °FDrizzle. Fog.14 mph94%29.71 "Hg1 mi
9:00 AM50 °FDrizzle. Low clouds.14 mph100%29.68 "Hg1 mi
8:00 AM52 °FDrizzle. Low clouds.12 mph94%29.68 "Hg1 mi
7:00 AM50 °FDrizzle. Low clouds.12 mph100%29.68 "Hg1 mi
6:00 AM50 °FDrizzle. Low clouds.12 mph100%29.68 "Hg2 mi
Weather by CustomWeather, © 2016

See weather overviewHow to use our weather pages